TimePST,TemperatureF,Dew PointF,Humidity,Sea Level PressureIn,VisibilityMPH,Wind Direction,Wind SpeedMPH,Gust SpeedMPH,PrecipitationIn,Events,Conditions,WindDirDegrees,DateUTC
12:15 AM,51.8,46.4,82,30.34,10.0,West,4.6,-,N/A,,Overcast,280,2013-03-02 08:15:00
12:35 AM,51.8,46.4,82,30.33,10.0,West,5.8,-,N/A,,Overcast,280,2013-03-02 08:35:00
12:55 AM,50.0,46.4,87,30.33,10.0,Calm,Calm,-,N/A,,Overcast,0,2013-03-02 08:55:00
1:15 AM,51.8,46.4,82,30.33,10.0,West,3.5,-,N/A,,Overcast,270,2013-03-02 09:15:00
1:35 AM,50.0,46.4,87,30.32,10.0,WNW,3.5,-,N/A,,Overcast,300,2013-03-02 09:35:00
1:55 AM,50.0,48.2,94,30.32,10.0,Calm,Calm,-,N/A,,Overcast,0,2013-03-02 09:55:00
2:15 AM,50.0,46.4,87,30.30,10.0,Calm,Calm,-,N/A,,Overcast,0,2013-03-02 10:15:00
2:35 AM,50.0,46.4,87,30.29,10.0,WNW,3.5,-,N/A,,Overcast,300,2013-03-02 10:35:00
2:55 AM,50.0,46.4,87,30.29,10.0,West,3.5,-,N/A,,Overcast,270,2013-03-02 10:55:00
3:15 AM,50.0,46.4,87,30.28,10.0,Calm,Calm,-,N/A,,Overcast,0,2013-03-02 11:15:00
3:35 AM,50.0,46.4,87,30.27,10.0,Calm,Calm,-,N/A,,Overcast,0,2013-03-02 11:35:00
3:55 AM,48.2,46.4,93,30.27,10.0,Calm,Calm,-,N/A,,Mostly Cloudy,0,2013-03-02 11:55:00
4:15 AM,48.2,46.4,93,30.27,10.0,Calm,Calm,-,N/A,,Overcast,0,2013-03-02 12:15:00
4:35 AM,48.2,46.4,93,30.27,10.0,Calm,Calm,-,N/A,,Overcast,0,2013-03-02 12:35:00
4:55 AM,48.2,46.4,93,30.27,10.0,Calm,Calm,-,N/A,,Overcast,0,2013-03-02 12:55:00
5:15 AM,48.2,46.4,93,30.26,10.0,Calm,Calm,-,N/A,,Overcast,0,2013-03-02 13:15:00
5:35 AM,48.2,46.4,93,30.26,10.0,Calm,Calm,-,N/A,,Overcast,0,2013-03-02 13:35:00
5:55 AM,48.2,46.4,93,30.27,10.0,Calm,Calm,-,N/A,,Overcast,0,2013-03-02 13:55:00
6:15 AM,48.2,46.4,93,30.25,10.0,Calm,Calm,-,N/A,,Overcast,0,2013-03-02 14:15:00
6:35 AM,48.2,46.4,93,30.25,10.0,Calm,Calm,-,N/A,,Overcast,0,2013-03-02 14:35:00
6:55 AM,48.2,46.4,93,30.24,10.0,Calm,Calm,-,N/A,,Overcast,0,2013-03-02 14:55:00
7:15 AM,48.2,46.4,93,30.24,10.0,SW,3.5,-,N/A,,Overcast,230,2013-03-02 15:15:00
7:35 AM,48.2,46.4,93,30.24,10.0,Calm,Calm,-,N/A,,Overcast,0,2013-03-02 15:35:00
7:55 AM,48.2,46.4,93,30.24,10.0,Calm,Calm,-,N/A,,Overcast,0,2013-03-02 15:55:00
8:15 AM,50.0,48.2,94,30.25,10.0,WSW,3.5,-,N/A,,Overcast,250,2013-03-02 16:15:00
8:35 AM,50.0,48.2,94,30.25,10.0,West,3.5,-,N/A,,Overcast,270,2013-03-02 16:35:00
8:55 AM,50.0,48.2,94,30.25,10.0,Calm,Calm,-,N/A,,Overcast,0,2013-03-02 16:55:00
9:15 AM,51.8,46.4,82,30.26,10.0,Calm,Calm,-,N/A,,Overcast,0,2013-03-02 17:15:00
9:35 AM,51.8,48.2,88,30.25,10.0,ESE,3.5,-,N/A,,Overcast,120,2013-03-02 17:35:00
9:55 AM,51.8,48.2,88,30.25,10.0,ESE,4.6,-,N/A,,Overcast,120,2013-03-02 17:55:00
10:15 AM,53.6,48.2,82,30.24,10.0,ESE,5.8,-,N/A,,Overcast,110,2013-03-02 18:15:00
10:35 AM,53.6,48.2,82,30.24,10.0,ESE,5.8,-,N/A,,Overcast,120,2013-03-02 18:35:00
10:55 AM,53.6,48.2,82,30.24,10.0,ESE,5.8,-,N/A,,Overcast,120,2013-03-02 18:55:00
11:15 AM,53.6,48.2,82,30.24,10.0,SE,5.8,-,N/A,,Overcast,130,2013-03-02 19:15:00
11:35 AM,53.6,48.2,82,30.24,10.0,SE,6.9,-,N/A,,Overcast,140,2013-03-02 19:35:00
12:15 PM,53.6,48.2,82,30.24,10.0,ESE,4.6,-,N/A,,Overcast,120,2013-03-02 20:15:00
12:35 PM,53.6,48.2,82,30.24,10.0,South,5.8,-,N/A,,Overcast,170,2013-03-02 20:35:00
12:55 PM,53.6,48.2,82,30.23,10.0,SSE,4.6,-,N/A,,Overcast,160,2013-03-02 20:55:00
1:15 PM,53.6,48.2,82,30.23,10.0,South,4.6,-,N/A,,Overcast,170,2013-03-02 21:15:00
1:35 PM,51.8,46.4,82,30.23,10.0,NW,5.8,-,N/A,,Overcast,310,2013-03-02 21:35:00
1:55 PM,51.8,48.2,88,30.23,10.0,WNW,6.9,-,N/A,,Overcast,290,2013-03-02 21:55:00
2:15 PM,53.6,46.4,77,30.23,10.0,West,4.6,-,N/A,,Overcast,270,2013-03-02 22:15:00
2:35 PM,53.6,46.4,77,30.22,10.0,SSW,4.6,-,N/A,,Overcast,210,2013-03-02 22:35:00
2:55 PM,53.6,46.4,77,30.22,10.0,SW,4.6,-,N/A,,Overcast,230,2013-03-02 22:55:00
3:15 PM,53.6,46.4,77,30.22,10.0,SW,6.9,-,N/A,,Overcast,230,2013-03-02 23:15:00
3:35 PM,53.6,46.4,77,30.22,10.0,SSW,4.6,-,N/A,,Overcast,210,2013-03-02 23:35:00
3:55 PM,53.6,46.4,77,30.22,10.0,SSW,4.6,-,N/A,,Overcast,210,2013-03-02 23:55:00
4:15 PM,53.6,46.4,77,30.21,10.0,SSW,4.6,-,N/A,,Overcast,200,2013-03-03 00:15:00
4:35 PM,53.6,46.4,77,30.21,10.0,South,4.6,-,N/A,,Overcast,190,2013-03-03 00:35:00
4:55 PM,53.6,46.4,77,30.21,10.0,South,6.9,-,N/A,,Overcast,180,2013-03-03 00:55:00
5:15 PM,53.6,46.4,77,30.21,10.0,South,8.1,-,N/A,,Overcast,170,2013-03-03 01:15:00
5:35 PM,53.6,46.4,77,30.21,10.0,SSW,6.9,-,N/A,,Overcast,200,2013-03-03 01:35:00
5:55 PM,51.8,46.4,82,30.21,10.0,SSW,5.8,-,N/A,,Overcast,210,2013-03-03 01:55:00
6:15 PM,51.8,46.4,82,30.22,10.0,West,4.6,-,N/A,,Overcast,280,2013-03-03 02:15:00
6:35 PM,50.0,46.4,87,30.22,5.0,West,3.5,-,N/A,,Mostly Cloudy,280,2013-03-03 02:35:00
6:55 PM,50.0,48.2,94,30.22,10.0,WNW,3.5,-,N/A,,Overcast,300,2013-03-03 02:55:00
7:15 PM,50.0,46.4,87,30.22,6.0,WNW,15.0,-,N/A,,Overcast,290,2013-03-03 03:15:00
7:35 PM,48.2,44.6,87,30.22,10.0,West,12.7,-,N/A,,Overcast,280,2013-03-03 03:35:00
7:55 PM,48.2,42.8,82,30.22,10.0,West,12.7,18.4,N/A,,Overcast,280,2013-03-03 03:55:00
8:15 PM,46.4,42.8,87,30.23,10.0,West,13.8,-,N/A,,Overcast,280,2013-03-03 04:15:00
8:35 PM,46.4,42.8,87,30.23,10.0,West,9.2,-,N/A,,Overcast,280,2013-03-03 04:35:00
8:55 PM,46.4,42.8,87,30.24,10.0,NW,6.9,-,N/A,,Overcast,320,2013-03-03 04:55:00
9:15 PM,46.4,41.0,81,30.25,10.0,NW,11.5,-,N/A,,Overcast,310,2013-03-03 05:15:00
9:35 PM,46.4,41.0,81,30.26,10.0,NW,11.5,16.1,N/A,,Overcast,310,2013-03-03 05:35:00
9:55 PM,46.4,39.2,76,30.26,10.0,WNW,11.5,-,N/A,,Overcast,300,2013-03-03 05:55:00
10:15 PM,44.6,39.2,81,30.27,10.0,WNW,11.5,-,N/A,,Overcast,300,2013-03-03 06:15:00
10:35 PM,44.6,39.2,81,30.26,10.0,NW,9.2,-,N/A,,Overcast,310,2013-03-03 06:35:00
10:55 PM,44.6,39.2,81,30.27,10.0,NW,6.9,-,N/A,,Mostly Cloudy,310,2013-03-03 06:55:00
11:15 PM,44.6,39.2,81,30.27,10.0,WNW,6.9,-,N/A,,Overcast,300,2013-03-03 07:15:00
11:35 PM,42.8,37.4,81,30.27,10.0,WNW,6.9,-,N/A,,Mostly Cloudy,300,2013-03-03 07:35:00
11:55 PM,42.8,37.4,81,30.27,10.0,WNW,5.8,-,N/A,,Scattered Clouds,290,2013-03-03 07:55:00